This is the latest recevied weather packets stored in our database for station/object KM4RT-13. If no packets are shown the sender has not sent any weather packets the latest 10 day(s).
| Time | Temp. | Humidity | Pressure | Rain* | Wind** | Luminosity | Snow |
|---|---|---|---|---|---|---|---|
| 1778058494 | 11.11° C | 99% | 1007.7 hPa | 0 mm | - | 0 W/m² | - |
| 1778058191 | 11.11° C | 99% | 1007.3 hPa | 0 mm | - | 0 W/m² | - |
| 1778057887 | 11.11° C | 99% | 1007.2 hPa | 0 mm | - | 0 W/m² | - |
| 1778057584 | 11.11° C | 99% | 1006.8 hPa | 1.27 mm | - | 0 W/m² | - |
| 1778057280 | 11.11° C | 99% | 1005.7 hPa | 3.05 mm | - | 0 W/m² | - |
| 1778056977 | 11.11° C | 99% | 1006.6 hPa | 3.05 mm | - | 0 W/m² | - |
| 1778056674 | 11.11° C | 99% | 1006.8 hPa | 3.05 mm | - | 0 W/m² | - |
| 1778056372 | 11.11° C | 99% | 1006.4 hPa | 9.65 mm | - | 0 W/m² | - |
| 1778056069 | 11.11° C | 99% | 1006.5 hPa | 13.72 mm | - | 0 W/m² | - |
| 1778055764 | 11.11° C | 99% | 1007.3 hPa | 10.67 mm | - | 0 W/m² | - |
| 1778055462 | 11.11° C | 99% | 1006.9 hPa | 4.83 mm | - | 0 W/m² | - |
| 1778055159 | 11.11° C | 99% | 1006.9 hPa | 1.78 mm | - | 0 W/m² | - |
| 1778054858 | 11.11° C | 99% | 1006.9 hPa | 3.05 mm | - | 0 W/m² | - |
| 1778054553 | 11.11° C | 99% | 1006.1 hPa | 3.05 mm | - | 0 W/m² | - |
| 1778054251 | 11.67° C | 99% | 1005.2 hPa | 4.83 mm | - | 0 W/m² | - |
| 1778053948 | 11.67° C | 99% | 1006.4 hPa | 3.05 mm | - | 0 W/m² | - |
| 1778053646 | 11.67° C | 99% | 1006.9 hPa | 3.05 mm | - | 0 W/m² | - |
| 1778053343 | 11.67° C | 99% | 1006.9 hPa | 3.05 mm | - | 0 W/m² | - |
| 1778053040 | 11.67° C | 99% | 1006.5 hPa | 1.27 mm | - | 0 W/m² | - |
| 1778052738 | 11.67° C | 99% | 1006.2 hPa | 0 mm | - | 0 W/m² | - |
| 1778052434 | 11.67° C | 99% | 1006.3 hPa | 0 mm | - | 0 W/m² | - |
| 1778052132 | 11.67° C | 99% | 1006.7 hPa | 0 mm | - | 0 W/m² | - |
| 1778051829 | 12.22° C | 99% | 1006.5 hPa | 0 mm | - | 0 W/m² | - |
| 1778051527 | 12.22° C | 99% | 1006 hPa | 0 mm | - | 0 W/m² | - |
| 1778051224 | 12.22° C | 99% | 1005.9 hPa | 1.78 mm | - | 0 W/m² | - |
* Rain latest hour (hover to see other rain measurements)
** Current wind speed in m/s (hover to see current wind gust speed)